Location: Dobrá Voda
(48.7668°N, 14.7049°E)
Time: 05:51:23
(UTC+00:00)

Daily predictions for brighter satellites

Satellite Brightness Start Highest point End
(mag) Time Altitude Azimuth Time Altitude Azimuth Time Altitude Azimuth
Resurs 1-4 Rocket 3.7 00:00:16 10° NE 00:04:35 25° E 00:04:50 25° E
Cosmos 1464 Rocket 4.3 00:00:56 10° NNW 00:06:35 54° WNW 00:06:35 54° WNW
Cosmos 909 Rocket 4.5 00:06:56 64° WSW 00:08:21 80° NW 00:17:42 10° NE
Cosmos 2360 Rocket 2.5 00:09:55 59° ENE 00:09:55 59° ENE 00:14:50 10° NNE
Aureole 3 Rocket 4.2 00:06:42 10° N 00:10:25 44° N 00:10:25 44° N
Lacrosse 4 Rocket 3.2 00:15:03 27° N 00:15:03 27° N 00:17:20 10° NNE
NOSS 3-4 (A) 3.9 00:16:26 43° E 00:16:26 43° E 00:21:24 10° NE
NOSS 3-4 (C) 3.9 00:16:29 43° E 00:16:29 43° E 00:21:27 10° NE
Cosmos 1570 Rocket 4.4 00:17:04 58° NNW 00:17:04 58° NNW 00:21:33 10° NNE
USA 32 4.3 00:17:37 64° N 00:17:37 64° N 00:22:04 10° N
Cosmos 2278 Rocket 4.4 00:13:13 10° N 00:17:44 23° NE 00:22:13 10° E
Cosmos 2322 Rocket 2.2 00:19:32 76° NNE 00:19:32 76° NNE 00:24:44 10° NNE
BlueWalker 3 4.3 00:23:38 19° ENE 00:23:38 19° ENE 00:24:55 10° ENE
IDEFIX/ARIANE 42P 3.3 00:20:47 10° NNE 00:25:44 43° E 00:25:44 43° E
Cosmos 2034 Rocket 4.2 00:19:44 10° NNW 00:25:21 56° WNW 00:25:21 56° WNW
NOSS 3-2 (C) 4.2 00:19:49 10° NW 00:26:40 52° WSW 00:26:40 52° WSW
Cosmos 2219 Rocket 2.8 00:27:22 46° ESE 00:27:22 46° ESE 00:32:33 10° NE
SL-16 R/B 2.7 00:35:17 47° WNW 00:35:30 47° NW 00:41:00 10° NNE
H-2A R/B 4.5 00:34:50 10° NNE 00:37:46 43° NE 00:37:46 43° NE
USA 267 3.7 00:42:48 43° W 00:42:48 43° W 00:47:28 10° WNW
Meteor 1-26 Rocket 4.1 00:48:58 82° SSW 00:49:13 87° WNW 00:55:03 10° NNE
Cosmos 1634 Rocket 3.9 00:45:18 10° NNW 00:51:35 70° W 00:52:05 67° SW
ADEOS II 3.1 00:47:11 10° NNE 00:52:05 38° E 00:53:12 34° SE
Timation 2 Rocket 4.5 00:47:32 10° NW 00:52:59 45° W 00:52:59 45° W
Meteor 1-14 Rocket 4.3 00:49:23 10° N 00:54:56 69° ENE 00:56:11 52° SE
Cosmos 1726 4.2 00:52:36 10° NNE 00:54:45 21° ENE 00:54:45 21° ENE
SL-16 R/B 3.2 00:51:35 18° SE 00:56:06 53° ENE 01:02:08 10° N
Cosmos 1844 Rocket 4.4 00:55:52 10° NW 00:58:03 20° WNW 00:58:03 20° WNW
Cosmos 2142 Rocket 4.4 00:57:02 10° N 01:03:13 87° E 01:04:47 53° SSE
CZ-2D R/B 2.2 00:58:12 10° NNE 01:03:33 70° ESE 01:04:21 60° SSE
RESURS DK-1 4.3 01:06:15 20° ESE 01:06:25 21° ESE 01:09:28 10° ENE
Cosmos 1842 Rocket 3.7 01:13:45 67° ESE 01:13:51 68° E 01:18:17 10° NNE
Cosmos 1900 4.2 01:09:07 10° NW 01:14:15 82° SW 01:14:28 79° SSW
Cosmos 1408 Rocket 4.1 01:11:48 10° N 01:16:02 53° ENE 01:16:56 44° ESE
Cosmos 1943 Rocket 3.8 01:13:48 10° NNW 01:18:56 34° NE 01:24:03 10° ESE
COSMOS 2428 2.9 01:22:41 46° S 01:24:12 63° ESE 01:29:50 10° NNE
USA 238 DEB 4.4 01:19:34 10° NW 01:26:01 38° WSW 01:26:01 38° WSW
USA 238 4.4 01:19:39 10° NW 01:26:14 39° WSW 01:26:14 39° WSW
IRIDIUM 104 4.2 01:21:11 10° N 01:26:24 73° W 01:27:10 62° SW
Meteor 1-11 Rocket 3.9 01:24:42 10° N 01:30:19 69° ENE 01:34:01 21° SSE
UNK 4.2 01:29:18 23° SE 01:31:59 57° ENE 01:36:31 10° N
CZ-2C R/B 2.6 01:31:22 54° SSW 01:32:18 63° WSW 01:37:41 10° NNW
Cosmos 1805 Rocket 4.4 01:28:12 10° N 01:32:25 48° ENE 01:34:51 23° SE
Cosmos 2237 Rocket 3.6 01:29:23 19° SSE 01:32:26 31° ESE 01:37:22 10° NE
Cosmos 1500 Rocket 4.0 01:28:41 10° N 01:33:06 60° ENE 01:34:59 32° SE
IRIDIUM 114 4.3 01:30:23 10° N 01:35:33 61° W 01:36:18 55° SW
BREEZE-M DEB (TANK) 3.4 01:37:59 25° E 01:37:59 25° E 01:39:00 10° ENE
NOSS 2-2 (C) 4.4 01:33:11 10° NW 01:37:18 56° NE 01:42:59 10° ESE
Cosmos 1867 3.4 01:31:53 10° NW 01:37:23 81° SW 01:42:51 10° SSE
CZ-2C R/B 3.0 01:32:37 10° NNE 01:37:43 84° ESE 01:39:24 45° S
NPP 3.9 01:33:13 10° N 01:38:26 52° WNW 01:39:31 44° WSW
AQUA 3.8 01:34:53 10° NNE 01:39:40 81° ESE 01:40:53 50° S
Cosmos 2221 3.6 01:40:19 30° WNW 01:40:19 30° WNW 01:43:40 10° N
Cosmos 2322 3.6 01:38:31 49° SW 01:40:10 84° WNW 01:45:57 10° NNE
Cosmos 2279 Rocket 4.3 01:35:57 10° NNW 01:41:49 44° W 01:42:58 40° WSW
Meteor 2-9 Rocket 4.4 01:38:01 10° N 01:43:22 65° ENE 01:48:48 10° SSE
Resurs 1-4 Rocket 2.3 01:39:31 10° N 01:44:41 54° WNW 01:45:54 44° WSW
Lacrosse 5 2.3 01:44:48 37° W 01:46:32 56° NNW 01:51:35 10° NE
COSMOS 2441 4.4 01:41:57 10° N 01:46:49 67° WNW 01:47:56 50° SW
USA 215 3.9 01:42:06 10° ENE 01:48:21 50° NNW 01:53:22 16° W
Nadezhda 4 Rocket 3.9 01:45:46 35° S 01:48:34 87° W 01:54:44 10° N
Cosmos 2333 Rocket 3.2 01:46:53 27° W 01:48:41 34° NW 01:53:48 10° NNE
ALOS 2.5 01:44:06 10° NNE 01:48:43 64° ESE 01:50:36 34° S
Cosmos 44 Rocket 3.7 01:48:57 43° WSW 01:50:25 59° NW 01:55:32 10° NNE
Cosmos 972 Rocket 4.5 01:51:40 39° WSW 01:53:04 48° WNW 01:58:02 10° N
Cosmos 2360 Rocket 3.5 01:51:39 22° W 01:53:41 28° NW 01:58:30 10° NNE
Molniya-1 4.5 01:52:55 41° SW 01:54:43 82° NW 02:07:07 10° NE
NOSS 0 Rocket 4.2 01:52:16 29° S 01:55:26 64° ESE 02:01:32 10° NE
Cosmos 1733 3.6 01:54:06 10° N 01:57:40 56° ENE 01:59:42 23° SSE
Sich 1 2.9 01:54:58 10° N 01:59:12 88° ENE 02:01:15 30° S
BlueWalker 3 2.0 01:58:05 30° WNW 01:59:51 78° NNE 02:03:41 10° ESE
SAR-Lupe-1 4.0 01:57:25 10° N 02:01:00 66° WNW 02:01:17 62° WSW
Meteor 2-17 Rocket 4.4 01:58:13 29° SSW 02:01:31 82° W 02:07:41 10° N
Cosmos 2278 Rocket 2.1 01:56:48 10° NNW 02:02:31 82° WSW 02:08:11 10° SSE
Cosmos 2344 4.0 01:54:56 10° NW 02:03:19 77° SW 02:15:00 10° SSE
Cosmos 2322 Rocket 3.9 02:01:19 15° WNW 02:03:57 21° NW 02:08:08 10° N
IDEFIX/ARIANE 42P 3.5 02:00:36 10° N 02:05:07 31° WNW 02:06:30 27° W
NOSS 3-4 (A) 4.0 02:03:50 26° W 02:06:38 44° NW 02:12:36 10° NE
NOSS 3-4 (C) 4.0 02:03:53 26° W 02:06:41 45° NW 02:12:39 10° NE
Cosmos 1743 Rocket 3.4 02:02:49 10° NNW 02:07:10 81° W 02:09:28 27° S
Cosmos 1538 Rocket 4.0 02:07:18 35° SW 02:09:36 73° WNW 02:14:58 10° NNE
Cosmos 1536 3.1 02:07:15 10° NNW 02:10:58 43° W 02:11:03 43° W
Cosmos 1340 Rocket 4.3 02:07:53 12° SSE 02:11:04 33° E 02:14:33 10° NNE
Cosmos 2219 Rocket 3.1 02:09:03 26° W 02:11:18 35° NW 02:16:26 10° NNE
SAR-Lupe-4 3.9 02:08:38 10° N 02:12:03 45° WNW 02:12:23 43° W
Cosmos 192 4.2 02:08:13 10° NNW 02:13:06 69° WSW 02:17:58 10° SSE
NOSS 2-3 (C) 4.5 02:07:45 10° NW 02:13:26 80° SW 02:21:13 10° SE
Cosmos 1633 Rocket 4.5 02:10:13 10° N 02:14:18 38° ENE 02:18:22 10° SE
Gbstr 26 Del rocket 2.7 02:13:49 41° WSW 02:15:12 89° S 02:19:02 10° ENE
Cosmos 1805 3.9 02:12:22 10° N 02:16:01 50° ENE 02:19:37 10° SSE
EO 1 Delta rocket 3.8 02:12:04 10° NNE 02:16:49 80° E 02:20:08 19° S
Meteor 2-10 4.1 02:11:27 10° NNW 02:17:03 77° W 02:22:45 10° S
NOSS 2-3 (D) 4.5 02:12:55 10° NW 02:18:34 78° SW 02:26:18 10° SSE
GP-B 3.3 02:14:38 10° N 02:18:56 52° W 02:20:36 33° SW
ATLAS 3B R/B 4.4 02:12:53 10° NW 02:20:06 40° NNE 02:27:20 10° E
Cosmos 2056 Rocket 4.2 02:15:29 10° NNW 02:20:48 58° ENE 02:26:08 10° SE
SL-16 R/B 4.4 02:18:18 10° WNW 02:21:06 14° NNW 02:23:55 10° N
METEOR-M 4.5 02:16:24 10° NNE 02:21:43 65° ESE 02:26:42 12° S
SL-16 R/B 4.2 02:18:27 10° SSE 02:22:54 25° ESE 02:27:23 10° NE
NOSS 7 (E) 4.2 02:21:36 10° NW 02:24:43 88° ENE 02:28:19 10° SE
NOSS 2-2 (E) 4.1 02:21:21 10° NW 02:25:47 54° SW 02:32:01 10° SSE
Cosmos 1726 3.5 02:26:02 10° NW 02:27:30 18° WNW 02:27:30 18° WNW
BREEZE-M DEB (TANK) 3.6 02:27:08 21° W 02:29:30 88° N 02:40:40 10° E
Okean 1 3.6 02:29:45 33° WSW 02:30:51 42° WNW 02:34:31 10° N
Cosmos 1092 Rocket 3.9 02:26:21 16° SSW 02:31:25 78° W 02:37:36 10° N
CZ-2C R/B 3.0 02:26:24 10° NNE 02:31:32 59° E 02:36:37 10° S
ADEOS II 2.9 02:26:55 10° N 02:31:39 35° WNW 02:34:05 23° WSW
Cosmos 1624 Rocket 4.3 02:28:04 10° NNW 02:33:20 70° ENE 02:38:31 10° SSE
FENGYUN 3A 4.3 02:29:18 10° N 02:34:20 39° WNW 02:37:10 23° WSW
Meteor 1-19 Rocket 4.4 02:30:32 19° SSW 02:34:50 69° WNW 02:40:53 10° N
Cosmos 2026 Rocket 4.0 02:33:59 15° SSW 02:39:19 70° W 02:45:43 10° N
Cosmos 1461 3.1 02:36:04 10° NW 02:39:39 38° WSW 02:43:11 10° S
SL-16 R/B 3.2 02:36:39 20° SW 02:39:56 32° W 02:45:26 10° NNW
NOSS 2-2 (D) 4.0 02:35:48 10° NW 02:40:10 56° SW 02:46:17 10° SSE
Kosmos-1783 2.5 02:42:15 44° N 02:42:15 44° N 02:43:46 10° NE
CZ-2D R/B 3.6 02:39:06 10° N 02:43:05 22° WNW 02:45:39 16° W
Cosmos 1151 Rocket 3.1 02:40:50 20° SSW 02:43:37 59° WNW 02:47:55 10° N
ATLAS 5 CENTAUR R/B 2.9 02:39:04 10° NW 02:43:41 51° NE 02:49:22 10° ESE
RESURS DK-1 2.8 02:41:52 25° WSW 02:43:53 46° NW 02:47:50 10° NNE
Cosmos 923 Rocket 4.0 02:42:04 17° SSW 02:46:06 79° WNW 02:51:25 10° NNE
Envisat 2.9 02:44:03 10° NNE 02:49:09 79° WNW 02:54:11 10° SSW
Cosmos 921 Rocket 3.5 02:50:26 10° S 02:54:36 58° ESE 02:58:52 10° NNE
Cosmos 1766 4.2 02:52:02 10° N 02:55:38 47° ENE 02:59:12 10° SSE
Meteor 1-18 Rocket 4.4 02:51:23 10° S 02:56:59 78° E 03:02:45 10° NNE
Cosmos 1975 2.7 02:55:57 10° NNW 02:59:45 59° W 03:03:33 10° S
Cosmos 1470 Rocket 3.9 02:55:51 10° N 03:00:15 71° E 03:04:39 10° SSE
Meteor 1-27 Rocket 4.3 02:56:58 15° SW 03:01:20 41° WNW 03:06:42 10° N
Cosmos 1371 Rocket 4.0 02:56:55 10° NNW 03:02:08 69° WSW 03:07:21 10° S
Cosmos 1943 Rocket 2.4 02:57:26 10° NW 03:02:53 50° WSW 03:08:19 10° S
Cosmos 1340 2.4 03:00:07 10° NNW 03:03:31 60° W 03:06:54 10° S
Thor Agena Rocket 3.5 03:00:22 10° NNE 03:05:26 79° WNW 03:10:28 10° SSW
ATLAS 2AS CENTAUR R/B 3.4 02:58:38 10° SSW 03:05:54 59° ESE 03:12:54 10° NE
Meteor 2-4 Rocket 3.6 03:01:26 10° SSW 03:06:50 77° WNW 03:12:24 10° N
NOAA 11 4.2 03:03:09 10° N 03:08:35 67° WNW 03:13:58 10° SSW
COSMOS 2428 3.9 03:04:40 13° W 03:08:52 29° NW 03:13:47 10° NNE
H-2A R/B 3.3 03:04:22 10° NNE 03:09:06 41° E 03:13:53 10° SSE
CZ-4 R/B 4.3 03:04:44 10° N 03:09:15 43° WNW 03:13:28 11° SW
Cosmos 1626 1.9 03:07:37 10° S 03:10:53 81° E 03:14:13 10° NNE
Cosmos 1484 Rocket 4.0 03:07:37 10° NNE 03:11:02 38° E 03:14:24 10° SSE
Cosmos 2297 4.2 03:06:22 10° NNW 03:12:06 66° ENE 03:17:49 10° SE
Cosmos 1666 Rocket 3.9 03:09:27 10° NNW 03:13:44 45° W 03:17:57 10° SSW
Cosmos 2237 Rocket 2.6 03:11:13 12° SW 03:16:16 50° NW 03:21:49 10° NNE
Cosmos 1980 4.2 03:12:32 12° SW 03:17:32 47° NW 03:23:00 10° NNE
Intercosmos 25 Rocket 3.9 03:17:46 10° NNW 03:20:53 35° W 03:25:00 10° SSW
Cosmos 2369 Rocket 2.9 03:15:40 10° NNW 03:21:14 58° ENE 03:26:44 10° SE
S3M 4.0 03:16:04 10° N 03:22:15 89° ENE 03:28:29 10° S
USA 308 4.5 03:19:36 10° S 03:22:45 25° SE 03:25:57 10° E
Resurs 1-4 Rocket 4.2 03:22:17 10° NW 03:23:21 11° NW 03:24:23 10° WNW
NOSS 3-1 (A) 4.5 03:18:13 10° NW 03:25:15 67° NE 03:33:51 10° SE
ALOS 3.9 03:22:17 10° NNW 03:25:30 19° WNW 03:28:41 10° WSW
YAOGAN 11 4.5 03:21:03 10° SSE 03:25:31 75° ENE 03:30:04 10° NNW
Cosmos 2112 Rocket 4.2 03:20:27 10° SW 03:25:42 60° WNW 03:31:02 10° NNE
Cosmos 1933 Rocket 3.9 03:23:13 10° N 03:27:36 72° E 03:31:56 10° SSE
DMSP B5D2-2 4.3 03:23:38 10° S 03:28:37 47° W 03:33:38 10° NNW
COSMO-SKYMED 1 4.5 03:25:39 10° SE 03:29:37 36° ENE 03:33:38 10° N
Lacrosse 5 3.3 03:25:43 10° WNW 03:30:20 33° N 03:34:57 10° ENE
USA 215 4.2 03:24:33 10° ENE 03:30:41 45° N 03:36:50 10° WNW
CRYOSAT 2 4.4 03:28:20 10° N 03:33:12 71° W 03:38:03 10° SSW
Cosmos 1655 Rocket 4.5 03:27:28 10° S 03:33:37 68° E 03:39:49 10° NNE
Cosmos 2266 Rocket 4.0 03:28:32 10° S 03:34:37 88° W 03:40:42 10° N
Cosmos 2333 Rocket 4.5 03:33:31 10° NW 03:34:51 11° NNW 03:36:11 10° N
YAOGAN 6 3.4 03:33:23 10° N 03:36:13 27° WNW 03:39:02 10° SW
IRS-1D 3.9 03:32:15 10° N 03:37:05 46° WNW 03:41:59 10° SW
BlueWalker 3 3.0 03:34:37 10° W 03:37:49 25° SW 03:41:01 10° SSE
